EW2817 Weather Reports


Display with metric or nautical units.
time (UTC)temp
F
wind
direction
speed
MPH
gust
MPH
rain 1hr
in
rain 24hr
in
rain mn
in
humidity
%
barometer
mb
20260901144943 87 0 0.0 0.0 0.00 0.00 0.00 74 996.1
20260901143443 86 0 0.0 0.0 0.00 0.00 0.00 80 996.0
20260901142645 83 0 0.0 0.0 0.00 0.00 0.00 84 996.0
20260901140441 81 0 0.0 0.0 0.00 0.00 0.00 88 995.9
20260901134939 78 0 0.0 0.0 0.00 0.00 0.00 92 995.9
20260901133439 77 0 0.0 0.0 0.00 0.00 0.00 93 995.9
20260901131939 76 0 0.0 0.0 0.00 0.00 0.00 94 995.8
20260901130439 76 0 0.0 0.0 0.00 0.00 0.00 94 995.8
20260901124939 75 0 0.0 0.0 0.00 0.00 0.00 94 995.7
20260901123439 74 0 0.0 0.0 0.00 0.00 0.00 95 995.7
20260901121938 74 0 0.0 0.0 0.00 0.00 0.00 94 995.7
20260901120437 74 0 0.0 0.0 0.00 0.00 0.00 94 995.7
20260901114934 74 0 0.0 0.0 0.00 0.00 0.00 94 995.4
20260901113435 74 0 0.0 0.0 0.00 0.00 0.00 94 995.3
20260901111933 74 0 0.0 0.0 0.00 0.00 0.00 94 995.1
20260901111122 74 0 0.0 0.0 0.00 0.00 0.00 94 995.0
20260901104928 74 0 0.0 0.0 0.00 0.00 0.00 94 994.9
20260901103424 74 0 0.0 0.0 0.00 0.00 0.00 94 994.7
20260901101924 74 0 0.0 0.0 0.00 0.00 0.00 93 994.7
20260901100422 74 0 0.0 0.0 0.00 0.00 0.00 93 994.6
20260901094921 74 0 0.0 0.0 0.00 0.00 0.00 93 994.7
20260901093420 74 0 0.0 0.0 0.00 0.00 0.00 92 994.6
20260901091920 75 0 0.0 0.0 0.00 0.00 0.00 91 994.7
20260901090419 75 0 0.0 0.0 0.00 0.00 0.00 90 994.6
20260901084917 75 0 0.0 0.0 0.00 0.00 0.00 89 994.8
20260901083414 75 0 0.0 0.0 0.00 0.00 0.00 89 994.8
20260901081914 76 0 0.0 0.0 0.00 0.00 0.00 89 994.9
20260901081117 76 0 0.0 0.0 0.00 0.00 0.00 89 994.9
20260901074916 76 0 0.0 0.0 0.00 0.00 0.00 88 994.9
20260901073414 76 0 0.0 0.0 0.00 0.00 0.00 89 995.2
20260901071912 76 0 0.0 0.0 0.00 0.00 0.00 89 995.2
20260901070409 76 0 0.0 0.0 0.00 0.00 0.00 89 995.3
20260901064908 76 0 0.0 0.0 0.00 0.00 0.00 88 995.3
20260901064106 77 0 0.0 0.0 0.00 0.00 0.00 88 995.4
20260901061904 77 0 0.0 0.0 0.00 0.00 0.00 87 995.4
20260901060408 77 0 0.0 0.0 0.00 0.00 0.00 87 995.4
20260901054902 78 0 0.0 0.0 0.00 0.00 0.00 87 995.5
20260901053402 78 0 0.0 0.0 0.00 0.00 0.00 88 995.6
20260901051900 78 0 0.0 0.0 0.00 0.00 0.00 87 995.6
20260901050358 78 0 0.0 0.0 0.00 0.00 0.00 86 995.7
20260901044858 79 0 0.0 0.0 0.00 0.00 0.00 87 995.6
20260901043356 79 0 0.0 0.0 0.00 0.00 0.00 87 995.6
20260901043245 79 0 0.0 0.0 0.00 0.00 0.00 86 995.5
20260901040351 78 0 0.0 0.0 0.00 0.00 0.00 87 995.6
20260901034853 78 0 0.0 0.0 0.00 0.00 0.00 86 995.6
20260901033349 79 0 0.0 0.0 0.00 0.00 0.00 84 995.5
20260901031849 79 0 0.0 0.0 0.00 0.00 0.00 83 995.4
20260901030348 79 0 0.0 0.0 0.00 0.00 0.00 82 995.2
20260901024847 79 0 0.0 0.0 0.00 0.00 0.00 81 995.3
20260901023345 80 0 0.0 0.0 0.00 0.00 0.00 80 995.3
20260901021845 80 0 0.0 0.0 0.00 0.00 0.00 81 995.2
20260901020344 80 0 0.0 0.0 0.00 0.00 0.00 81 995.3
20260901014845 80 0 0.0 0.0 0.00 0.00 0.00 81 995.3
20260901013345 80 0 0.0 0.0 0.00 0.00 0.00 80 995.2
20260901011845 80 0 0.0 0.0 0.00 0.00 0.00 81 995.0
20260901010343 80 0 0.0 0.0 0.00 0.00 0.00 82 994.9
20260901004843 80 0 0.0 0.0 0.00 0.00 0.00 83 994.7
20260901003342 81 0 0.0 0.0 0.00 0.00 0.00 82 994.7
20260901001840 81 0 0.0 0.0 0.00 0.00 0.00 81 994.5
20260901000340 82 0 0.0 0.0 0.00 0.00 0.00 83 994.4
20260831234840 82 0 0.0 0.0 0.00 0.00 0.00 83 994.5
20260831233339 83 0 0.0 0.0 0.00 0.00 0.00 83 994.5
20260831232529 84 0 0.0 0.0 0.00 0.00 0.00 82 994.5
20260831230337 84 0 0.0 0.0 0.00 0.00 0.00 80 994.4
20260831224836 85 0 0.0 0.0 0.00 0.00 0.00 78 994.5
20260831224031 86 0 0.0 0.0 0.00 0.00 0.00 76 994.5
20260831221832 86 0 0.0 0.0 0.00 0.00 0.00 75 994.5
20260831221022 87 0 0.0 0.0 0.00 0.00 0.00 73 994.5
20260831214828 87 0 0.0 0.0 0.00 0.00 0.00 71 994.6
20260831213328 88 0 0.0 0.0 0.00 0.00 0.00 70 994.7
20260831211824 88 0 0.0 0.0 0.00 0.00 0.00 71 994.8
20260831211027 88 0 0.0 0.0 0.00 0.00 0.00 68 994.8
20260831204824 90 0 0.0 0.0 0.00 0.00 0.00 65 995.0
20260831203322 89 0 0.0 0.0 0.00 0.00 0.00 62 995.1
20260831201822 90 0 0.0 0.0 0.00 0.00 0.00 63 995.1
20260831200322 91 0 0.0 0.0 0.00 0.00 0.00 62 995.2
20260831194821 92 0 0.0 0.0 0.00 0.00 0.00 56 995.2
20260831193321 92 0 0.0 0.0 0.00 0.00 0.00 58 995.2
20260831191816 93 0 0.0 0.0 0.00 0.00 0.00 56 995.4
20260831190314 94 0 0.0 0.0 0.00 0.00 0.00 55 995.6
20260831184814 95 0 0.0 0.0 0.00 0.00 0.00 55 995.8
20260831183314 95 0 0.0 0.0 0.00 0.00 0.00 53 995.9
20260831181813 95 0 0.0 0.0 0.00 0.00 0.00 58 996.0
20260831180316 94 0 0.0 0.0 0.00 0.00 0.00 56 996.2
20260831174813 95 0 0.0 0.0 0.00 0.00 0.00 54 996.2
20260831173313 95 0 0.0 0.0 0.00 0.00 0.00 59 996.3
20260831171812 94 0 0.0 0.0 0.00 0.00 0.00 61 996.4
20260831170309 92 0 0.0 0.0 0.00 0.00 0.00 63 996.5
20260831164807 91 0 0.0 0.0 0.00 0.00 0.00 67 996.7
20260831163305 91 0 0.0 0.0 0.00 0.00 0.00 64 996.6
20260831161803 90 0 0.0 0.0 0.00 0.00 0.00 67 996.9
20260831160313 89 0 0.0 0.0 0.00 0.00 0.00 70 996.9
20260831154803 87 0 0.0 0.0 0.00 0.00 0.00 72 997.1
20260831154013 87 0 0.0 0.0 0.00 0.00 0.00 73 997.0
20260831152441 86 0 0.0 0.0 0.00 0.00 0.00 75 997.1
20260831150207 85 0 0.0 0.0 0.00 0.00 0.00 78 997.2